Lakeville, MN

2:41 PM CDT on September 25, 2017 (GMT -0500)
Airlake

Weather History for KLVN - October, 2013

Change the Weather History Date:

Wednesday, October 23, 2013

  Actual Average Record
Temperature  
Mean Temperature 34 °F -  
Max Temperature 37 °F 56 °F 80 °F (1963)
Min Temperature 30 °F 38 °F 14 °F (1981)
Degree Days  
Heating Degree Days 32    
Moisture  
Dew Point 25 °F    
Average Humidity 74    
Maximum Humidity 93    
Minimum Humidity 52    
Precipitation  
Precipitation 0.00 in - - ()
Sea Level Pressure  
Sea Level Pressure 30.03 in    
Wind  
Wind Speed 6 mph (WNW)    
Max Wind Speed 15 mph    
Max Gust Speed 22 mph    
Visibility 10 miles    
Events      
Averages and records for this station are not official NWS values.
T = Trace of Precipitation, MM = Missing Value Source: NWS Daily Summary

Daily Weather History Graph

Daily Weather History Graph

Search for Another Location

Airport or City:

Trip Planner

Search our weather history database for the weather conditions in past years. The results will help you decide how hot, cold, wet, or windy it might be!

Date:

Astronomy

Oct. 23, 2013 Rise Set
Actual Time 7:38 AM CDT 6:14 PM CDT
Civil Twilight 7:09 AM CDT 6:44 PM CDT
Nautical Twilight 6:35 AM CDT 7:18 PM CDT
Astronomical Twilight 6:01 AM CDT 7:52 PM CDT
Moon 9:40 PM CDT (10/23) 12:02 PM CDT (10/23)
Length of Visible Light 11h 35m
Length of Day
10h 35m
Waning Gibbous, 79% of the Moon is Illuminated
Oct 23
Waning Gibbous
Oct 26
Last Quarter
Nov 3
New
Nov 9
First Quarter
Nov 17
Full

Hourly Weather History & Observations

Time (CDT) Temp. Windchill Dew Point Humidity Pressure Visibility Wind Dir Wind Speed Gust Speed Precip Events Conditions
12:10 AM 33.8 °F 29.6 °F 30.2 °F 87% 30.01 in 10.0 mi NW 4.6 mph - N/A   Overcast
12:31 AM 33.8 °F 29.6 °F 30.2 °F 87% 30.01 in 10.0 mi NW 4.6 mph - N/A   Overcast
12:50 AM 33.8 °F - 30.2 °F 87% 30.01 in 10.0 mi Calm Calm - N/A   Overcast
1:11 AM 32.0 °F 28.7 °F 30.2 °F 93% 30.01 in 10.0 mi West 3.5 mph - N/A   Unknown
1:31 AM 32.0 °F 28.7 °F 28.4 °F 87% 30.01 in 10.0 mi West 3.5 mph - N/A   Overcast
1:50 AM 30.2 °F - 28.4 °F 93% 30.01 in 10.0 mi Calm Calm - N/A   Overcast
2:11 AM 30.2 °F 26.7 °F 28.4 °F 93% 30.01 in 10.0 mi West 3.5 mph - N/A   Unknown
2:30 AM 30.2 °F 26.7 °F 28.4 °F 93% 30.01 in 10.0 mi West 3.5 mph - N/A   Overcast
2:51 AM 30.2 °F 26.7 °F 28.4 °F 93% 30.01 in 10.0 mi West 3.5 mph - N/A   Overcast
3:10 AM 30.2 °F - 28.4 °F 93% 30.00 in 10.0 mi Calm Calm - N/A   Unknown
3:30 AM 30.2 °F 26.7 °F 28.4 °F 93% 30.00 in 10.0 mi West 3.5 mph - N/A   Unknown
3:51 AM 30.2 °F 25.4 °F 28.4 °F 93% 30.00 in 10.0 mi West 4.6 mph - N/A   Overcast
4:10 AM 30.2 °F 25.4 °F 26.6 °F 86% 30.00 in 10.0 mi West 4.6 mph - N/A   Overcast
4:30 AM 30.2 °F 23.4 °F 26.6 °F 86% 30.00 in 10.0 mi West 6.9 mph - N/A   Overcast
4:51 AM 30.2 °F 24.3 °F 28.4 °F 93% 30.00 in 10.0 mi West 5.8 mph - N/A   Overcast
5:10 AM 30.2 °F 24.3 °F 28.4 °F 93% 30.00 in 10.0 mi West 5.8 mph - N/A   Overcast
5:31 AM 30.2 °F 24.3 °F 28.4 °F 93% 30.00 in 10.0 mi West 5.8 mph - N/A   Overcast
5:50 AM 30.2 °F 25.4 °F 28.4 °F 93% 30.00 in 10.0 mi West 4.6 mph - N/A   Overcast
6:10 AM 30.2 °F 26.7 °F 28.4 °F 93% 30.01 in 10.0 mi West 3.5 mph - N/A   Overcast
6:30 AM 30.2 °F 25.4 °F 28.4 °F 93% 30.01 in 10.0 mi West 4.6 mph - N/A   Overcast
6:50 AM 30.2 °F 24.3 °F 26.6 °F 86% 30.01 in 10.0 mi West 5.8 mph - N/A   Overcast
7:11 AM 30.2 °F 23.4 °F 26.6 °F 86% 30.01 in 10.0 mi West 6.9 mph - N/A   Overcast
7:30 AM 30.2 °F 25.4 °F 26.6 °F 86% 30.01 in 10.0 mi WSW 4.6 mph - N/A   Overcast
7:50 AM 30.2 °F 26.7 °F 26.6 °F 86% 30.01 in 10.0 mi WSW 3.5 mph - N/A   Overcast
8:11 AM 30.2 °F 26.7 °F 26.6 °F 86% 30.01 in 10.0 mi West 3.5 mph - N/A   Mostly Cloudy
8:30 AM 30.2 °F 24.3 °F 26.6 °F 86% 30.02 in 10.0 mi West 5.8 mph - N/A   Overcast
8:50 AM 30.2 °F 25.4 °F 28.4 °F 93% 30.02 in 10.0 mi West 4.6 mph - N/A   Overcast
9:11 AM 32.0 °F 26.4 °F 28.4 °F 87% 30.02 in 10.0 mi West 5.8 mph - N/A   Overcast
9:30 AM 32.0 °F 24.8 °F 28.4 °F 87% 30.02 in 10.0 mi West 8.1 mph - N/A   Overcast
9:51 AM 33.8 °F 27.7 °F 28.4 °F 81% 30.02 in 10.0 mi WNW 6.9 mph - N/A   Overcast
10:10 AM 33.8 °F 27.7 °F 28.4 °F 81% 30.02 in 10.0 mi WNW 6.9 mph - N/A   Overcast
10:31 AM 35.6 °F 29.9 °F 28.4 °F 75% 30.02 in 10.0 mi WNW 6.9 mph - N/A   Overcast
10:50 AM 35.6 °F 28.6 °F 28.4 °F 75% 30.02 in 10.0 mi NNW 9.2 mph - N/A   Overcast
11:10 AM 35.6 °F 28.6 °F 28.4 °F 75% 30.02 in 10.0 mi NW 9.2 mph - N/A   Overcast
11:31 AM 35.6 °F 29.9 °F 28.4 °F 75% 30.02 in 10.0 mi WNW 6.9 mph - N/A   Overcast
11:50 AM 35.6 °F 27.5 °F 24.8 °F 65% 30.02 in 10.0 mi NNW 11.5 mph - N/A   Overcast
12:10 PM 35.6 °F 27.5 °F 24.8 °F 65% 30.02 in 10.0 mi WNW 11.5 mph 18.4 mph N/A   Overcast
12:31 PM 35.6 °F 28.6 °F 24.8 °F 65% 30.02 in 10.0 mi WNW 9.2 mph 17.3 mph N/A   Overcast
12:50 PM 35.6 °F 27.5 °F 24.8 °F 65% 30.02 in 10.0 mi WNW 11.5 mph - N/A   Overcast
1:11 PM 35.6 °F 26.6 °F 23.0 °F 60% 30.02 in 10.0 mi NW 13.8 mph 19.6 mph N/A   Overcast
1:30 PM 35.6 °F 27.5 °F 21.2 °F 56% 30.02 in 10.0 mi NW 11.5 mph - N/A   Overcast
1:50 PM 35.6 °F 27.1 °F 21.2 °F 56% 30.02 in 10.0 mi NW 12.7 mph 18.4 mph N/A   Overcast
2:11 PM 37.4 °F 29.3 °F 21.2 °F 52% 30.01 in 10.0 mi WNW 12.7 mph - N/A   Overcast
2:30 PM 37.4 °F 29.8 °F 21.2 °F 52% 30.01 in 10.0 mi West 11.5 mph 17.3 mph N/A   Overcast
2:51 PM 35.6 °F 27.5 °F 21.2 °F 56% 30.01 in 10.0 mi WNW 11.5 mph 18.4 mph N/A   Overcast
3:11 PM 35.6 °F 27.1 °F 21.2 °F 56% 30.02 in 10.0 mi NW 12.7 mph - N/A   Overcast
3:30 PM 35.6 °F 27.1 °F 21.2 °F 56% 30.02 in 10.0 mi WNW 12.7 mph - N/A   Overcast
3:51 PM 35.6 °F 27.1 °F 21.2 °F 56% 30.02 in 10.0 mi NW 12.7 mph 16.1 mph N/A   Overcast
4:10 PM 35.6 °F 27.1 °F 21.2 °F 56% 30.03 in 10.0 mi WNW 12.7 mph 16.1 mph N/A   Overcast
4:31 PM 35.6 °F 28.0 °F 21.2 °F 56% 30.04 in 10.0 mi NW 10.4 mph - N/A   Overcast
4:50 PM 35.6 °F 27.5 °F 21.2 °F 56% 30.04 in 10.0 mi NW 11.5 mph - N/A   Overcast
5:10 PM 33.8 °F 24.8 °F 21.2 °F 60% 30.05 in 10.0 mi NW 12.7 mph - N/A   Overcast
5:31 PM 33.8 °F 23.9 °F 21.2 °F 60% 30.06 in 10.0 mi NW 15.0 mph 21.9 mph N/A   Overcast
5:50 PM 33.8 °F 24.8 °F 19.4 °F 56% 30.06 in 10.0 mi WNW 12.7 mph - N/A   Overcast
6:10 PM 32.0 °F 22.1 °F 19.4 °F 60% 30.07 in 10.0 mi WNW 13.8 mph - N/A   Overcast
6:30 PM 32.0 °F 24.2 °F 19.4 °F 60% 30.06 in 10.0 mi NNW 9.2 mph - N/A   Overcast
6:51 PM 32.0 °F 26.4 °F 19.4 °F 60% 30.07 in 10.0 mi NW 5.8 mph - N/A   Overcast
7:10 PM 32.0 °F 26.4 °F 19.4 °F 60% 30.08 in 10.0 mi NW 5.8 mph - N/A   Overcast
7:31 PM 32.0 °F 25.6 °F 19.4 °F 60% 30.08 in 10.0 mi NW 6.9 mph - N/A   Overcast
7:50 PM 32.0 °F 27.5 °F 19.4 °F 60% 30.08 in 10.0 mi NW 4.6 mph - N/A   Overcast
8:10 PM 30.2 °F 25.4 °F 21.2 °F 69% 30.08 in 10.0 mi NW 4.6 mph - N/A   Overcast
8:31 PM 32.0 °F 26.4 °F 19.4 °F 60% 30.08 in 10.0 mi NW 5.8 mph - N/A   Overcast
8:50 PM 32.0 °F 27.5 °F 19.4 °F 60% 30.09 in 10.0 mi NW 4.6 mph - N/A   Overcast
9:11 PM 32.0 °F 26.4 °F 21.2 °F 64% 30.09 in 10.0 mi NW 5.8 mph - N/A   Overcast
9:30 PM 30.2 °F 25.4 °F 21.2 °F 69% 30.09 in 10.0 mi NW 4.6 mph - N/A   Unknown
9:50 PM 30.2 °F 26.7 °F 21.2 °F 69% 30.09 in 10.0 mi West 3.5 mph - N/A   Overcast
10:10 PM 30.2 °F 24.3 °F 21.2 °F 69% 30.09 in 10.0 mi WNW 5.8 mph - N/A   Overcast
10:30 PM 32.0 °F 25.6 °F 21.2 °F 64% 30.09 in 10.0 mi NW 6.9 mph - N/A   Overcast
10:51 PM 30.2 °F 21.9 °F 21.2 °F 69% 30.09 in 10.0 mi NW 9.2 mph - N/A   Overcast
11:10 PM 32.0 °F 24.8 °F 21.2 °F 64% 30.09 in 10.0 mi NW 8.1 mph - N/A   Overcast
11:31 PM 30.2 °F 23.4 °F 21.2 °F 69% 30.09 in 10.0 mi WNW 6.9 mph - N/A   Overcast
11:50 PM 30.2 °F 24.3 °F 19.4 °F 64% 30.09 in 10.0 mi WNW 5.8 mph - N/A   Overcast